EW2799 Weather Reports


time (UTC)temp
F
wind
direction
speed
knots
gust
knots
rain 1hr
in
rain 24hr
in
rain mn
in
humidity
%
barometer
mb
20260506091541 58 0 0.0 0.0 0.00 0.00 0.00 85 1015.6
20260506091031 58 0 0.0 0.0 0.00 0.00 0.00 85 1015.6
20260506090530 59 0 0.0 0.0 0.00 0.00 0.00 84 1015.6
20260506090040 59 0 0.0 0.0 0.00 0.00 0.00 84 1015.6
20260506085529 59 0 0.0 0.0 0.00 0.00 0.00 84 1015.7
20260506085029 59 0 0.0 0.0 0.00 0.00 0.00 84 1015.8
20260506084543 59 0 0.0 0.0 0.00 0.00 0.00 84 1015.9
20260506084030 59 0 0.0 0.0 0.00 0.00 0.00 84 1015.9
20260506083529 59 0 0.0 0.0 0.00 0.00 0.00 83 1016.0
20260506083045 59 0 0.0 0.0 0.00 0.00 0.00 83 1016.1
20260506082529 59 0 0.0 0.0 0.00 0.00 0.00 83 1016.1
20260506082029 59 0 0.0 0.0 0.00 0.00 0.00 83 1016.1
20260506081544 59 0 0.0 0.0 0.00 0.00 0.00 83 1016.2
20260506081030 59 0 0.0 0.0 0.00 0.00 0.00 83 1016.2
20260506080530 59 0 0.0 0.0 0.00 0.00 0.00 83 1016.2
20260506073528 59 0 0.0 0.0 0.00 0.00 0.00 81 1016.2
20260506073042 59 0 0.0 0.0 0.00 0.00 0.00 81 1016.1
20260506072529 59 0 0.0 0.0 0.00 0.00 0.00 81 1016.2
20260506072031 59 0 0.0 0.0 0.00 0.00 0.00 80 1016.3
20260506071539 60 0 0.0 0.0 0.00 0.00 0.00 80 1016.3
20260506071030 60 0 0.0 0.0 0.00 0.00 0.00 79 1016.2
20260506070529 60 0 0.0 0.0 0.00 0.00 0.00 79 1016.2
20260506062030 62 0 0.0 3.5 0.00 0.00 0.00 74 1015.9
20260506061540 61 0 0.0 3.5 0.00 0.00 0.00 74 1015.9
20260506061031 61 0 0.9 3.5 0.00 0.00 0.00 75 1015.8
20260506060532 60 175 0.0 3.5 0.00 0.00 0.00 76 1015.8
20260506051033 60 0 0.0 0.0 0.00 0.00 0.00 78 1016.1
20260506050530 60 0 0.0 0.0 0.00 0.00 0.00 78 1016.0
20260506045028 61 0 0.0 0.0 0.00 0.00 0.00 76 1015.9
20260506044546 61 0 0.0 0.0 0.00 0.00 0.00 76 1016.1
20260506044046 61 0 0.0 0.0 0.00 0.00 0.00 74 1016.1
20260506043530 61 0 0.0 0.0 0.00 0.00 0.00 74 1016.4
20260506043042 61 0 0.0 0.0 0.00 0.00 0.00 73 1016.4
20260506042531 61 0 0.0 0.0 0.00 0.00 0.00 73 1016.3
20260506042031 61 0 0.0 0.0 0.00 0.00 0.00 73 1016.3
20260506041539 61 0 0.0 0.0 0.00 0.00 0.00 72 1016.4
20260506041032 61 0 0.0 0.0 0.00 0.00 0.00 71 1016.3
20260506040530 61 0 0.0 0.0 0.00 0.00 0.00 70 1016.2
20260506040044 62 0 0.0 0.0 0.00 0.00 0.00 70 1016.2
20260506035533 62 0 0.0 0.0 0.00 0.00 0.00 69 1016.1
20260506035031 62 0 0.0 0.0 0.00 0.00 0.00 69 1016.2
20260506034541 62 0 0.0 0.0 0.00 0.00 0.00 68 1016.2
20260506034030 62 0 0.0 0.0 0.00 0.00 0.00 68 1016.0
20260506033530 62 0 0.0 0.0 0.00 0.00 0.00 66 1016.2
20260506033038 63 0 0.0 0.0 0.00 0.00 0.00 65 1016.0
20260506032530 63 0 0.0 0.0 0.00 0.00 0.00 65 1016.0
20260506032031 63 0 0.0 0.0 0.00 0.00 0.00 64 1016.1
20260506031542 63 0 0.0 0.0 0.00 0.00 0.00 65 1016.1
20260506031030 63 0 0.0 0.0 0.00 0.00 0.00 64 1016.2
20260506030532 63 0 0.0 0.0 0.00 0.00 0.00 64 1016.2
20260506030057 64 0 0.0 0.0 0.00 0.00 0.00 63 1016.4
20260506025530 64 0 0.0 0.0 0.00 0.00 0.00 63 1016.5
20260506025034 64 0 0.0 0.0 0.00 0.00 0.00 63 1016.5
20260506024552 64 0 0.0 0.0 0.00 0.00 0.00 62 1016.4
20260506024031 64 0 0.0 0.0 0.00 0.00 0.00 62 1016.3
20260506023531 64 0 0.0 0.0 0.00 0.00 0.00 62 1016.3
20260506023041 64 0 0.0 0.0 0.00 0.00 0.00 62 1016.2
20260506022530 65 0 0.0 0.0 0.00 0.00 0.00 63 1016.2
20260506022030 65 0 0.0 0.0 0.00 0.00 0.00 62 1016.2
20260506021540 65 0 0.0 0.0 0.00 0.00 0.00 63 1016.4
20260506021030 65 0 0.0 0.0 0.00 0.00 0.00 62 1016.2
20260506020534 65 0 0.0 0.0 0.00 0.00 0.00 63 1016.2
20260506020039 65 0 0.0 0.0 0.00 0.00 0.00 63 1016.2
20260506015531 66 0 0.0 0.0 0.00 0.00 0.00 64 1016.1
20260506015033 66 0 0.0 0.0 0.00 0.00 0.00 65 1016.1
20260506014553 66 0 0.0 0.0 0.00 0.00 0.00 65 1016.1
20260506014030 67 0 0.0 0.0 0.00 0.00 0.00 65 1016.0
20260506013527 67 0 0.0 0.0 0.00 0.00 0.00 65 1015.9
20260506013042 67 0 0.0 0.0 0.00 0.00 0.00 63 1015.9
20260506012527 68 0 0.0 0.0 0.00 0.00 0.00 63 1016.0
20260506012028 68 0 0.0 0.0 0.00 0.00 0.00 63 1015.9
20260506011544 69 0 0.0 0.0 0.00 0.00 0.00 61 1016.0
20260506011030 69 0 0.0 0.0 0.00 0.00 0.00 60 1016.0
20260506010527 70 0 0.0 0.0 0.00 0.00 0.00 59 1016.0
20260506010049 70 0 0.0 0.0 0.00 0.00 0.00 58 1016.0
20260506005527 71 0 0.0 0.0 0.00 0.00 0.00 57 1015.9
20260506005026 71 0 0.0 0.0 0.00 0.00 0.00 56 1015.9
20260506004548 72 0 0.0 0.0 0.00 0.00 0.00 55 1015.8
20260506004027 72 0 0.0 0.0 0.00 0.00 0.00 54 1015.8
20260506003531 73 0 0.0 0.0 0.00 0.00 0.00 53 1015.9
20260506003042 74 0 0.0 0.0 0.00 0.00 0.00 52 1015.8
20260506002530 74 0 0.0 0.0 0.00 0.00 0.00 51 1015.7
20260506002027 75 0 0.0 1.7 0.00 0.00 0.00 50 1015.7
20260506001546 75 0 0.0 1.7 0.00 0.00 0.00 49 1015.9
20260506001031 76 262 0.0 0.9 0.00 0.00 0.00 47 1015.9
20260506000529 76 0 0.0 0.9 0.00 0.00 0.00 46 1015.6
20260506000042 76 0 0.0 2.6 0.00 0.00 0.00 46 1015.5
20260505235527 76 0 0.0 2.6 0.00 0.00 0.00 46 1015.4
20260505235027 77 246 0.0 2.6 0.00 0.00 0.00 45 1015.6
20260505234543 77 0 0.9 4.3 0.00 0.00 0.00 45 1015.3
20260505234029 77 284 0.9 4.3 0.00 0.00 0.00 44 1015.2
20260505233527 77 271 0.9 4.3 0.00 0.00 0.00 44 1015.1
20260505233040 78 0 0.0 2.6 0.00 0.00 0.00 44 1015.2
20260505232526 78 0 0.0 2.6 0.00 0.00 0.00 43 1015.2
20260505232027 78 257 0.0 5.2 0.00 0.00 0.00 42 1015.1
20260505231544 78 0 0.9 5.2 0.00 0.00 0.00 42 1015.2
20260505231027 78 237 0.0 7.8 0.00 0.00 0.00 41 1015.3
20260505230530 79 108 0.9 7.8 0.00 0.00 0.00 41 1015.3
20260505230048 79 236 0.9 3.5 0.00 0.00 0.00 40 1015.3
20260505225530 79 202 0.9 3.5 0.00 0.00 0.00 40 1015.1
20260505225033 80 277 0.9 3.5 0.00 0.00 0.00 40 1015.0
20260505224547 80 186 0.0 5.2 0.00 0.00 0.00 41 1015.1
20260505224031 80 300 0.9 9.6 0.00 0.00 0.00 41 1015.0
20260505223530 80 271 0.9 9.6 0.00 0.00 0.00 42 1015.1
20260505223044 80 150 3.5 9.6 0.00 0.00 0.00 41 1015.1
20260505222528 80 313 1.7 7.8 0.00 0.00 0.00 41 1015.0
20260505222028 80 257 1.7 6.1 0.00 0.00 0.00 40 1015.0
20260505221541 81 229 0.9 5.2 0.00 0.00 0.00 41 1015.1
20260505221031 81 199 0.9 7.0 0.00 0.00 0.00 41 1015.3
20260505220528 81 298 2.6 7.0 0.00 0.00 0.00 40 1015.2
20260505220047 81 231 0.9 4.3 0.00 0.00 0.00 39 1015.3
20260505215530 81 54 0.0 5.2 0.00 0.00 0.00 39 1015.4
20260505215030 81 159 0.9 5.2 0.00 0.00 0.00 39 1015.3
20260505214543 81 301 1.7 5.2 0.00 0.00 0.00 38 1015.3
20260505214029 82 187 0.9 4.3 0.00 0.00 0.00 38 1015.4
20260505213534 82 198 0.9 8.7 0.00 0.00 0.00 39 1015.5
20260505213046 81 296 0.9 8.7 0.00 0.00 0.00 39 1015.5
20260505212533 81 239 2.6 7.8 0.00 0.00 0.00 38 1015.6
20260505212030 82 271 1.7 7.0 0.00 0.00 0.00 40 1015.5
20260505211545 82 209 1.7 7.0 0.00 0.00 0.00 39 1015.6
20260505211032 82 157 0.9 7.0 0.00 0.00 0.00 39 1015.5
20260505210530 82 321 0.9 7.0 0.00 0.00 0.00 40 1015.6
20260505210037 82 273 1.7 6.1 0.00 0.00 0.00 39 1015.6
20260505205532 82 348 1.7 4.3 0.00 0.00 0.00 38 1015.7
20260505205030 82 0 0.0 8.7 0.00 0.00 0.00 38 1015.7
20260505204544 81 0 1.7 9.6 0.00 0.00 0.00 39 1015.8
20260505204034 81 0 1.7 9.6 0.00 0.00 0.00 42 1015.8
20260505203530 81 239 2.6 11.3 0.00 0.00 0.00 41 1015.9
20260505203049 81 228 2.6 11.3 0.00 0.00 0.00 40 1015.9
20260505202529 81 304 1.7 9.6 0.00 0.00 0.00 40 1015.9
20260505202030 81 141 3.5 11.3 0.00 0.00 0.00 42 1015.8
20260505201547 81 232 3.5 11.3 0.00 0.00 0.00 42 1015.9
20260505201030 82 336 0.9 7.0 0.00 0.00 0.00 40 1016.0
20260505200530 81 279 1.7 7.0 0.00 0.00 0.00 39 1016.0
20260505200053 82 203 2.6 7.0 0.00 0.00 0.00 37 1016.1
20260505195533 82 221 0.0 4.3 0.00 0.00 0.00 38 1016.1
20260505195029 82 0 0.9 5.2 0.00 0.00 0.00 40 1016.2
20260505194548 81 309 0.9 5.2 0.00 0.00 0.00 38 1016.2
20260505194031 81 315 1.7 6.1 0.00 0.00 0.00 40 1016.3
20260505193534 81 0 1.7 6.1 0.00 0.00 0.00 41 1016.3
20260505193055 81 255 0.9 4.3 0.00 0.00 0.00 39 1016.4
20260505192530 80 234 0.9 6.1 0.00 0.00 0.00 42 1016.4
20260505192029 80 94 1.7 6.1 0.00 0.00 0.00 42 1016.6
20260505191542 80 316 1.7 7.8 0.00 0.00 0.00 41 1016.6
20260505191031 79 277 2.6 7.8 0.00 0.00 0.00 43 1016.7
20260505190529 80 240 3.5 7.8 0.00 0.00 0.00 42 1016.9
20260505190044 80 342 2.6 7.8 0.00 0.00 0.00 42 1017.0
20260505185530 81 175 1.7 7.8 0.00 0.00 0.00 41 1017.0
20260505185030 82 218 2.6 7.8 0.00 0.00 0.00 40 1017.0
20260505184542 81 203 0.9 5.2 0.00 0.00 0.00 43 1017.2
20260505184030 81 178 0.9 5.2 0.00 0.00 0.00 43 1017.2
20260505183530 80 0 1.7 11.3 0.00 0.00 0.00 45 1017.4
20260505183043 80 360 1.7 11.3 0.00 0.00 0.00 46 1017.6
20260505182529 79 311 0.9 10.4 0.00 0.00 0.00 48 1017.6
20260505182029 79 250 3.5 10.4 0.00 0.00 0.00 45 1017.7
20260505181540 79 176 0.9 3.5 0.00 0.00 0.00 45 1017.7
20260505181030 79 0 0.9 3.5 0.00 0.00 0.00 45 1017.7
20260505180529 78 128 0.9 10.4 0.00 0.00 0.00 50 1017.6
20260505180044 78 282 3.5 10.4 0.00 0.00 0.00 46 1017.7
20260505175530 79 263 1.7 7.8 0.00 0.00 0.00 48 1017.8
20260505175030 79 227 2.6 7.8 0.00 0.00 0.00 47 1017.9
20260505174542 78 198 2.6 11.3 0.00 0.00 0.00 48 1017.9
20260505174030 78 278 2.6 11.3 0.00 0.00 0.00 46 1017.8
20260505173529 79 194 3.5 11.3 0.00 0.00 0.00 48 1017.8
20260505173039 78 241 0.9 9.6 0.00 0.00 0.00 50 1017.8
20260505172529 78 217 2.6 10.4 0.00 0.00 0.00 48 1017.8
20260505172029 78 277 2.6 11.3 0.00 0.00 0.00 50 1018.0
20260505171547 78 223 4.3 11.3 0.00 0.00 0.00 49 1018.0
20260505171029 78 258 1.7 7.0 0.00 0.00 0.00 51 1018.0
20260505170529 78 246 2.6 7.8 0.00 0.00 0.00 50 1018.0
20260505170045 78 261 2.6 7.8 0.00 0.00 0.00 50 1017.9
20260505165529 78 0 0.9 3.5 0.00 0.00 0.00 52 1018.1
20260505165030 78 314 0.9 6.1 0.00 0.00 0.00 52 1018.1
20260505164544 77 76 0.9 6.1 0.00 0.00 0.00 54 1018.1
20260505164031 77 265 2.6 7.8 0.00 0.00 0.00 52 1018.2
20260505163530 77 0 1.7 7.8 0.00 0.00 0.00 53 1018.2
20260505163042 77 262 1.7 7.8 0.00 0.00 0.00 52 1018.3
20260505162530 77 138 3.5 7.0 0.00 0.00 0.00 52 1018.4
20260505162033 77 0 0.9 5.2 0.00 0.00 0.00 54 1018.6
20260505161539 76 352 1.7 7.0 0.00 0.00 0.00 54 1018.6
20260505161030 76 275 2.6 7.0 0.00 0.00 0.00 54 1018.5
20260505160531 76 232 2.6 6.1 0.00 0.00 0.00 52 1018.6
20260505153048 75 269 0.9 3.5 0.00 0.00 0.00 54 1018.7
20260505152530 74 73 0.9 3.5 0.00 0.00 0.00 56 1018.8
20260505152036 74 299 0.9 4.3 0.00 0.00 0.00 55 1018.8
20260505151544 73 246 1.7 7.0 0.00 0.00 0.00 57 1018.7
20260505151030 73 0 0.0 7.0 0.00 0.00 0.00 56 1018.7
20260505150530 73 183 0.9 5.2 0.00 0.00 0.00 58 1018.6
20260505140530 69 0 1.7 4.3 0.00 0.00 0.00 64 1018.4
20260505125031 63 0 0.0 0.0 0.00 0.00 0.00 79 1018.0
20260505124603 62 0 0.0 0.0 0.00 0.00 0.00 81 1018.2
20260505124030 61 0 0.0 0.0 0.00 0.00 0.00 84 1018.1
20260505123533 60 0 0.0 0.0 0.00 0.00 0.00 85 1018.0
20260505123112 60 0 0.0 0.0 0.00 0.00 0.00 86 1018.1
20260505122530 59 0 0.0 0.0 0.00 0.00 0.00 86 1018.0
20260505122031 59 0 0.0 0.9 0.00 0.00 0.00 88 1018.0
20260505121541 58 0 0.0 0.9 0.00 0.00 0.00 87 1017.9
20260505121035 57 0 0.0 0.0 0.00 0.00 0.00 88 1017.9
20260505120532 57 0 0.0 0.0 0.00 0.00 0.00 89 1017.7
20260505120055 56 0 0.0 0.0 0.00 0.00 0.00 91 1017.7
20260505115531 55 0 0.0 0.0 0.00 0.00 0.00 92 1017.6
20260505115031 54 0 0.0 0.9 0.00 0.00 0.00 92 1017.7
20260505114538 54 0 0.0 0.9 0.00 0.00 0.00 92 1017.6
20260505114031 53 0 0.0 0.0 0.00 0.00 0.00 92 1017.7
20260505113534 53 0 0.0 0.0 0.00 0.00 0.00 93 1017.6
20260505113045 52 0 0.0 0.0 0.00 0.00 0.00 93 1017.6
20260505112531 52 0 0.0 0.0 0.00 0.00 0.00 93 1017.6
20260505112033 52 0 0.0 0.9 0.00 0.00 0.00 93 1017.5
20260505111544 52 0 0.0 0.9 0.00 0.00 0.00 93 1017.4
20260505111033 52 0 0.0 0.9 0.00 0.00 0.00 92 1017.5
20260505110530 52 0 0.0 0.9 0.00 0.00 0.00 92 1017.3
20260505102029 53 0 0.0 0.0 0.00 0.00 0.00 90 1017.0
20260505101541 54 0 0.0 0.0 0.00 0.00 0.00 90 1016.8
20260505101029 54 0 0.0 0.0 0.00 0.00 0.00 89 1016.8
20260505100526 54 0 0.0 0.9 0.00 0.00 0.00 89 1016.9
20260505100044 55 0 0.0 0.9 0.00 0.00 0.00 89 1017.0
20260505095525 55 0 0.0 0.0 0.00 0.00 0.00 89 1017.0
20260505095025 55 0 0.0 0.0 0.00 0.00 0.00 88 1017.1
20260505094541 55 0 0.0 2.6 0.00 0.00 0.00 89 1017.1
20260505094025 55 0 0.0 2.6 0.00 0.00 0.00 88 1017.2
20260505093529 55 0 0.0 2.6 0.00 0.00 0.00 88 1017.3
20260505093038 55 0 0.0 2.6 0.00 0.00 0.00 88 1017.3
20260505092526 55 0 0.0 0.9 0.00 0.00 0.00 87 1017.3
20260505092026 56 0 0.0 0.9 0.00 0.00 0.00 87 1017.3